WetterOnline ( https://www.wetteronline.de )

Wetter aktuell Arnsberg

Aktuelles Wetter: Werl (84m)

6-stündlich | Neueste Meldungen
Ortszeit Temperatur Wetter
Mi, 23.10. 20:00 12.3° C wolkig
Mi, 23.10. 14:00 15.7° C wolkig
Mi, 23.10. 8:00 9.1° C bedeckt
Mi, 23.10. 2:00 9.6° C bedeckt
Di, 22.10. 20:00 9.5° C wolkig
Di, 22.10. 14:00 13.6° C bedeckt
Di, 22.10. 8:00 11.2° C bedeckt
Di, 22.10. 2:00 10.8° C wolkenlos
Ortszeit Temperatur Wetter
Do, 24.10. 1:30 8.1° C Nebel
Do, 24.10. 1:20 8.1° C Nebel
Do, 24.10. 1:10 7.5° C Nebel
Do, 24.10. 1:00 8.2° C wolkig
Do, 24.10. 0:50 8.2° C wolkig
Do, 24.10. 0:40 8.2° C leicht bewölkt
Do, 24.10. 0:30 8.4° C Nebel
Do, 24.10. 0:00 8.6° C Nebel
Mi, 23.10. 23:30 8.8° C Nebel
Mi, 23.10. 23:00 9.5° C wolkig
Mi, 23.10. 22:30 10.0° C wolkig
Ortszeit Relative Feuchte Sichtweite
Mi, 23.10. 20:00 92% 6 km
Mi, 23.10. 14:00 77% 10 km
Mi, 23.10. 8:00 97% 6 km
Mi, 23.10. 2:00 97% 5.0 km
Di, 22.10. 20:00 93% 9 km
Di, 22.10. 14:00 76% 50 km
Di, 22.10. 8:00 80% 40 km
Di, 22.10. 2:00 80% 70 km
Ortszeit Relative Feuchte Sichtweite
Do, 24.10. 1:30 99% 0.3 km
Do, 24.10. 1:20 99% -
Do, 24.10. 1:10 99% -
Do, 24.10. 1:00 100% 1.8 km
Do, 24.10. 0:50 100% -
Do, 24.10. 0:40 100% -
Do, 24.10. 0:30 99% 0.6 km
Do, 24.10. 0:00 99% 0.2 km
Mi, 23.10. 23:30 99% 0.2 km
Mi, 23.10. 23:00 99% 2.6 km
Mi, 23.10. 22:30 99% 3.8 km
Ortszeit Niederschlagsmenge Niederschlagsart
Mi, 23.10. 20:00 0.0 l/m2 in 12 Std. -
Mi, 23.10. 14:00 0.0 l/m2 in 6 Std. -
Mi, 23.10. 8:00 0.1 l/m2 in 12 Std. Regen
Mi, 23.10. 2:00 0.0 l/m2 in 6 Std. -
Di, 22.10. 20:00 0.0 l/m2 in 12 Std. -
Di, 22.10. 14:00 0.0 l/m2 in 6 Std. -
Di, 22.10. 8:00 0.0 l/m2 in 12 Std. -
Di, 22.10. 2:00 0.0 l/m2 in 6 Std. -
Ortszeit Niederschlagsmenge Niederschlagsart
Do, 24.10. 1:30 0.0 l/m2 in 1 Std. -
Do, 24.10. 1:20 keine Meldung -
Do, 24.10. 1:10 keine Meldung -
Do, 24.10. 1:00 0.0 l/m2 in 1 Std. -
Do, 24.10. 0:50 keine Meldung -
Do, 24.10. 0:40 keine Meldung -
Do, 24.10. 0:30 0.0 l/m2 in 1 Std. -
Do, 24.10. 0:00 0.0 l/m2 in 1 Std. -
Mi, 23.10. 23:30 0.0 l/m2 in 1 Std. -
Mi, 23.10. 23:00 0.0 l/m2 in 1 Std. -
Mi, 23.10. 22:30 0.0 l/m2 in 1 Std. -
Ortszeit Stärke Spitze Richtung
km/h Bft. km/h Grad Sektor
Mi, 23.10. 20:00 7 2 22 70° O
Mi, 23.10. 14:00 13 3 20 70° O
Mi, 23.10. 8:00 4 1 11 110° O
Mi, 23.10. 2:00 4 1 7 20° N
Di, 22.10. 20:00 4 1 18 270° W
Di, 22.10. 14:00 11 2 22 220° SW
Di, 22.10. 8:00 11 2 22 210° SW
Di, 22.10. 2:00 7 2 18 180° S
Ortszeit Stärke Spitze Richtung
km/h Bft. km/h Grad Sektor
Do, 24.10. 1:30 4 1 7 80° O
Do, 24.10. 1:20 4 1 - 80° O
Do, 24.10. 1:10 4 1 - 50° NO
Do, 24.10. 1:00 4 1 7 150° SO
Do, 24.10. 0:50 4 1 - 150° SO
Do, 24.10. 0:40 4 1 - 150° SO
Do, 24.10. 0:30 6 1 7 40° NO
Do, 24.10. 0:00 4 1 4 50° NO
Mi, 23.10. 23:30 0 0 4 - -
Mi, 23.10. 23:00 2 1 7 70° O
Mi, 23.10. 22:30 4 1 7 10° N
Ortszeit Untergrenze Bedeckung Gattung
total tief tief mittel hoch
Mi, 23.10. 20:00 10500 m 8/8 0/8 - - -
Mi, 23.10. 14:00 4500 m 7/8 7/8 - - -
Mi, 23.10. 8:00 3000 m 8/8 8/8 - - -
Mi, 23.10. 2:00 3000 m 8/8 8/8 - - -
Di, 22.10. 20:00 9000 m 8/8 0/8 - - -
Di, 22.10. 14:00 810 m 8/8 8/8 - - -
Di, 22.10. 8:00 600 m 8/8 8/8 - - -
Di, 22.10. 2:00 - 0/8 0/8 - - -
Ortszeit Bedeckungsgrad in Achtel und Wolkenuntergrenze
Do, 24.10. 1:30 3(5700m)
Do, 24.10. 1:20 3(5700m)
Do, 24.10. 1:10 2(6000m)
Do, 24.10. 1:00 2(<30m) 7(5700m)
Do, 24.10. 0:50 2(<30m) 7(5700m)
Do, 24.10. 0:40 2(<30m) 5(5700m)
Do, 24.10. 0:30 1(10500m) 3(5700m)
Do, 24.10. 0:00 7(10500m) 7(10500m)
Mi, 23.10. 23:30 4(9000m) 8(10500m)
Mi, 23.10. 23:00 8(9000m) 8(10500m)
Mi, 23.10. 22:30 8(10500m)
Ortszeit Luftdruck NN (hPa) Tendenz (hPa in 3 Std.)
Mi, 23.10. 20:00 1012 - 1,4
Mi, 23.10. 14:00 1015 - 2,7
Mi, 23.10. 8:00 1019 - 1,6
Mi, 23.10. 2:00 1023 - 1,2
Di, 22.10. 20:00 1025 + 0,5
Di, 22.10. 14:00 1025 - 0,1
Di, 22.10. 8:00 1023 + 0,9
Di, 22.10. 2:00 1022 + 0,4
Ortszeit Luftdruck NN (hPa) Tendenz (hPa in 3 Std.)
Do, 24.10. 1:30 1009 - 1,1
Do, 24.10. 1:20 1009 keine Meldung
Do, 24.10. 1:10 1010 keine Meldung
Do, 24.10. 1:00 1010 - 0,9
Do, 24.10. 0:50 1010 keine Meldung
Do, 24.10. 0:40 1010 keine Meldung
Do, 24.10. 0:30 1010 - 0,7
Do, 24.10. 0:00 1010 - 0,8
Mi, 23.10. 23:30 1010 - 1,4
Mi, 23.10. 23:00 1010 - 1,7
Mi, 23.10. 22:30 1010 - 1,8
Ortszeit Schneehöhe (cm)
Mi, 23.10. 20:00 0
Mi, 23.10. 14:00 0
Mi, 23.10. 8:00 0
Mi, 23.10. 2:00 0
Di, 22.10. 20:00 0
Di, 22.10. 14:00 0
Di, 22.10. 8:00 0
Di, 22.10. 2:00 0
Ortszeit Schneehöhe (cm)
Do, 24.10. 1:30 0
Do, 24.10. 1:20 0
Do, 24.10. 1:10 0
Do, 24.10. 1:00 0
Do, 24.10. 0:50 0
Do, 24.10. 0:40 0
Do, 24.10. 0:30 0
Do, 24.10. 0:00 0
Mi, 23.10. 23:30 0
Mi, 23.10. 23:00 0
Mi, 23.10. 22:30 0
Link zu dieser Seite / Seite empfehlen

Das Wetter in ...